Warning: A non-numeric value encountered in /var/www/vhosts/manhaeghe.com/httpdocs/weather2/wsFunctions.php on line 561
This website is under construction - Deze website is in opbouw - Ce site est en construction - Diese Website ist im Aufbau.
Please return later. Schauen Sie bitte später nochmals an.  S'il vous plaît revenir plus tard.  Komt u straks nog eens terug
Het weer levert geen direct gevaar op.    Er zijn geen waarschuwingen afgegeven.


webcam Wortegem (ovl-BE) more information webcam Wortegem (ovl-BE)


Onweer radar more information blitzortung!


Regen radar more information rain snow radar


Bezoek onze andere website:

Template documentation
and downloads

And another site



15 daagse weersverwachting Wortegem-Petegem (BE)

  • Overzicht
  • Per uur
  • 15 dagen
  • Extra
  • Vergelijk
  • Kaarten
  • Dagkaart
  • Meer »
  • Info
  • Statistieken
  • Directe link
    Temp 6h Neerslag Wind  
 05:56     21:49    Daglengte: 15:53 Vandaag
08:00
16°
 
3
14:00
23°
 
4
20:00
22°
 
2
 05:57     21:48    Daglengte: 15:51 Morgen
02:00
18°
 
2
08:00
19°
0.5 mm
4
14:00
23°
7.0 mm
6
warningclass
20:00
22°
2.4 mm
5
 05:59     21:47    Daglengte: 15:48 Zondag 21 Jul
02:00
16°
 
5
08:00
16°
 
4
14:00
23°
 
3
20:00
23°
 
3
 06:00     21:46    Daglengte: 15:46 Maandag 22 Jul
02:00
15°
 
2
Locatie info
Region: Flandern
Latitude: 50.8520°N
Longitude: 3.5104°E
0 masl
Postcode: 9790
Temp/Neerslag /Baro Onweer/Dauwpunt
    Temp Baro 1h Neerslag Dauwpunt Wind UV Bewolking  
 05:56     21:49    Daglengte: 15:53 Vandaag
06:00
14°
1013.1 hPa   13.2°
3
Windvlaag: 2.3 m/s
20%
07:00
15°
1013.3 hPa   13.6°
3
Windvlaag: 2.5 m/s
33%
08:00
16°
1013.5 hPa   14.0°
3
Windvlaag: 2.4 m/s
55%
09:00
18°
1013.8 hPa   14.2°
3
Windvlaag: 2.1 m/s
44%
10:00
19°
1013.9 hPa   14.1°
3
Windvlaag: 2.1 m/s
12%
11:00
21°
1013.9 hPa   13.6°
3
Windvlaag: 2.2 m/s
22%
12:00
22°
1013.8 hPa   12.7°
4
Windvlaag: 2.7 m/s
43%
13:00
23°
1013.6 hPa   12.2°
4
Windvlaag: 2.9 m/s
55%
14:00
23°
1013.5 hPa   11.8°
4
Windvlaag: 3.1 m/s
60%
15:00
23°
1013.2 hPa   11.2°
4
Windvlaag: 3.3 m/s
58%
16:00
24°
1013.1 hPa   10.9°
4
Windvlaag: 3.3 m/s
83%
17:00
24°
1012.7 hPa   11.6°
3
Windvlaag: 2.7 m/s
69%
18:00
24°
1012.4 hPa   12.3°
3
Windvlaag: 2.2 m/s
72%
19:00
23°
1012.4 hPa   13.6°
3
Windvlaag: 2 m/s
89%
20:00
22°
1012.4 hPa   14.1°
2
Windvlaag: 2.5 m/s
88%
21:00
21°
1012.2 hPa   15.0°
1
Windvlaag: 2.4 m/s
88%
22:00
21°
1012.3 hPa
13%
15.3°
2
Windvlaag: -1.1 m/s
83%
23:00
20°
1012.1 hPa   15.3°
1
Windvlaag: -0.9 m/s
85%
 05:57     21:48    Daglengte: 15:51 Morgen
00:00
19°
1011.8 hPa   15.5°
1
Windvlaag: 0.3 m/s
88%
01:00
19°
1011.3 hPa   15.9°
2
Windvlaag: 1 m/s
86%
02:00
18°
1011.0 hPa
20%
15.5°
2
Windvlaag: 1.4 m/s
69%
03:00
18°
1010.5 hPa
19%
14.5°
2
Windvlaag: 1.6 m/s
81%
04:00
19°
1010.0 hPa
20%
13.9°
3
Windvlaag: 2.7 m/s
81%
05:00
19°
1009.4 hPa
19%
13.9°
3
Windvlaag: 3.1 m/s
61%
06:00
19°
1009.0 hPa
62%
13.7°
3
Windvlaag: 3 m/s
82%
07:00
19°
1009.1 hPa
78%
13.9°
4
Windvlaag: 4 m/s
90%
08:00
19°
1009.2 hPa 0.5 mm
82%
14.3°
4
Windvlaag: 4.3 m/s
90%
09:00
19°
1009.4 hPa 1.1 mm
82%
15.4°
4
Windvlaag: 4.3 m/s
91%
10:00
19°
1009.4 hPa 1.3 mm
82%
15.9°
3
Windvlaag: 3.5 m/s
88%
11:00
20°
1009.6 hPa 1.7 mm
82%
16.2°
4
Windvlaag: 3.2 m/s
69%
12:00
21°
1009.6 hPa 1.1 mm
75%
16.6°
5
Windvlaag: 2.7 m/s
67%
13:00
22°
1009.8 hPa 0.9 mm
80%
16.3°
5
Windvlaag: 3 m/s
60% warningclass
14:00
23°
1010.1 hPa 0.8 mm
82%
16.7°
6
Windvlaag: 3 m/s
61% warningclass
15:00
23°
1010.4 hPa 1.5 mm
82%
16.4°
6
Windvlaag: 3 m/s
58%
16:00
23°
1010.3 hPa 0.9 mm
80%
15.4°
6
Windvlaag: 3.1 m/s
24%
17:00
23°
1010.4 hPa
33%
15.3°
6
Windvlaag: 2.9 m/s
18%
18:00
23°
1010.7 hPa
30%
15.3°
6
Windvlaag: 2.9 m/s
20%
19:00
22°
1011.3 hPa
29%
16.7°
6
Windvlaag: 2.6 m/s
73%
20:00
22°
1011.6 hPa
19%
16.2°
5
Windvlaag: 2.5 m/s
75%
21:00
20°
1012.2 hPa
16%
15.9°
5
Windvlaag: 3 m/s
51%
22:00
19°
1013.0 hPa
14%
15.0°
5
Windvlaag: 3.1 m/s
1%
23:00
18°
1013.8 hPa
21%
13.1°
5
Windvlaag: 3.8 m/s
2%
 05:59     21:47    Daglengte: 15:48 Zondag 21 Jul
00:00
17°
1014.3 hPa
21%
12.7°
5
Windvlaag: 3.8 m/s
6%
01:00
16°
1014.9 hPa
21%
12.7°
5
Windvlaag: 3.5 m/s
5%
02:00
16°
1015.1 hPa
21%
13.2°
5
Windvlaag: 3.5 m/s
0%
03:00
16°
1015.6 hPa
21%
13.5°
4
Windvlaag: 3.2 m/s
0%
04:00
15°
1015.9 hPa
21%
14.0°
4
Windvlaag: 2.6 m/s
8%
05:00
15°
1016.4 hPa
21%
14.3°
4
Windvlaag: 2.7 m/s
27%
06:00
15°
1017.1 hPa
21%
14.2°
4
Windvlaag: 2.6 m/s
46%
07:00
15°
1017.9 hPa
21%
14.3°
4
Windvlaag: 2.6 m/s
52%
08:00
16°
1018.7 hPa
21%
14.4°
4
Windvlaag: 2.6 m/s
66%
09:00
18°
1019.2 hPa
21%
14.2°
4
Windvlaag: 1.1 m/s
63%
10:00
19°
1019.6 hPa
21%
13.4°
4
Windvlaag: 1.1 m/s
12%
11:00
20°
1020.3 hPa
21%
12.9°
4
Windvlaag: 0.9 m/s
17%
12:00
22°
1020.8 hPa
21%
12.7°
4
Windvlaag: 0.7 m/s
54%
13:00
23°
1021.0 hPa
21%
12.5°
4
Windvlaag: 0.7 m/s
63%
14:00
23°
1021.2 hPa
21%
12.4°
3
Windvlaag: 0.7 m/s
47%
15:00
24°
1021.3 hPa
21%
11.8°
4
Windvlaag: 0.6 m/s
63%
16:00
25°
1021.2 hPa
21%
11.0°
4
Windvlaag: 0.5 m/s
67%
17:00
24°
1021.3 hPa
21%
11.0°
4
Windvlaag: 0.5 m/s
53%
18:00
24°
1021.5 hPa
21%
12.5°
4
Windvlaag: 0.4 m/s
27%
19:00
24°
1021.5 hPa
21%
13.0°
3
Windvlaag: 0.4 m/s
42%
20:00
23°
1021.9 hPa
21%
13.3°
3
Windvlaag: 0.4 m/s
52%
21:00
21°
1022.3 hPa
21%
13.4°
3
Windvlaag: 3.2 m/s
63%
22:00
20°
1022.6 hPa
21%
13.4°
2
Windvlaag: 3.6 m/s
64%
23:00
19°
1023.0 hPa
23%
13.5°
2
Windvlaag: 2.9 m/s
68%
 06:00     21:46    Daglengte: 15:46 Maandag 22 Jul
00:00
17°
1023.3 hPa
21%
13.2°
2
Windvlaag: 1.9 m/s
55%
01:00
16°
1023.5 hPa
21%
13.0°
2
Windvlaag: 2.1 m/s
50%
02:00
15°
1023.6 hPa
21%
13.0°
2
Windvlaag: 0.4 m/s
61%
03:00
15°
1023.7 hPa 7.7 mm
100%
12.9°
2
Windvlaag: 4 m/s
85%
04:00
16°
1023.8 hPa 7.7 mm
100%
12.9°
2
Windvlaag: 2.3 m/s
84%
05:00
16°
1023.8 hPa 7.7 mm
100%
12.8°
2
Windvlaag: 2.1 m/s
91%
Temp/Neerslag /Baro Onweer/Dauwpunt
    Temp Baro Neerslag Dauwpunt Wind Bewolking  
 05:56     21:49    Daglengte: 15:53 Vandaag
08:00
16°
1013.5 hPa   14.0°
3
55%
11:00
21°
1013.9 hPa   13.6°
3
22%
14:00
23°
1013.5 hPa   11.8°
4
60%
17:00
24°
1012.7 hPa   11.6°
3
69%
20:00
22°
1012.4 hPa   14.1°
2
88%
23:00
20°
1012.1 hPa   15.3°
1
85%
 05:57     21:48    Daglengte: 15:51 Morgen
02:00
18°
1011.0 hPa   15.5°
2
69%
05:00
19°
1009.4 hPa   13.9°
3
61%
08:00
19°
1009.2 hPa 0.5 mm 14.3°
4
90%
11:00
20°
1009.6 hPa 4.2 mm 16.2°
4
69%
14:00
23°
1010.1 hPa 2.9 mm 16.7°
6
61% warningclass
17:00
23°
1010.4 hPa 2.4 mm 15.3°
6
18%
20:00
22°
1011.6 hPa   16.2°
5
75%
23:00
18°
1013.8 hPa   13.1°
5
2%
 05:59     21:47    Daglengte: 15:48 Zondag 21 Jul
02:00
16°
1015.1 hPa   13.2°
5
0%
05:00
15°
1016.4 hPa   14.3°
4
27%
08:00
16°
1018.7 hPa   14.4°
4
66%
11:00
20°
1020.3 hPa   12.9°
4
17%
14:00
23°
1021.2 hPa   12.4°
3
47%
17:00
24°
1021.3 hPa   11.0°
4
53%
20:00
23°
1021.9 hPa   13.3°
3
52%
23:00
19°
1023.0 hPa   13.5°
2
68%
 06:00     21:46    Daglengte: 15:46 Maandag 22 Jul
02:00
15°
1023.6 hPa   13.0°
2
61%
05:00
16°
1023.8 hPa 23.0 mm 12.8°
2
91%
08:00
17°
1024.2 hPa 23.0 mm 13.2°
3
94%
11:00
23°
1024.5 hPa 21.3 mm 15.2°
3
78%
14:00
26°
1024.6 hPa 21.3 mm 15.2°
3
74%
17:00
27°
1024.0 hPa 21.3 mm 15.8°
2
73%
20:00
27°
1023.4 hPa 21.3 mm 16.7°
1
72%
23:00
22°
1023.8 hPa 21.3 mm 16.6°
2
39%
 06:01     21:45    Daglengte: 15:44 Dinsdag 23 Jul
02:00
18°
1024.2 hPa 21.3 mm 15.5°
2
6%
05:00
19°
1023.7 hPa 21.3 mm 16.1°
2
36%
08:00
20°
1023.2 hPa 21.3 mm 16.7°
2
67%
11:00
25°
1022.8 hPa 21.3 mm 17.4°
2
71%
14:00
30°
1022.2 hPa 21.3 mm 16.3°
2
75%
17:00
30°
1021.2 hPa 21.3 mm 17.9°
2
65%
20:00
29°
1020.1 hPa 21.3 mm 19.6°
2
56%
23:00
25°
1020.2 hPa 21.3 mm 18.5°
2
29%
 06:03     21:43    Daglengte: 15:40 Woensdag 24 Jul
02:00
21°
1020.3 hPa 21.3 mm 17.1°
2
2%
05:00
22°
1019.9 hPa 21.3 mm 17.2°
2
14%
08:00
22°
1019.5 hPa 21.3 mm 17.5°
3
25%
11:00
27°
1018.9 hPa 21.3 mm 18.8°
3
58%
14:00
33°
1018.3 hPa 21.3 mm 18.5°
3
90%
17:00
32°
1017.1 hPa 21.3 mm 19.3°
3
45%
20:00
32°
1015.9 hPa 21.3 mm 20.2°
2
0%
23:00
28°
1016.1 hPa 21.3 mm 17.9°
3
0%
 06:04     21:42    Daglengte: 15:38 Donderdag 25 Jul
02:00
25°
1016.2 hPa 21.3 mm 15.7°
3
0%
05:00
24°
1016.0 hPa 21.3 mm 15.9°
3
1%
08:00
24°
1016.0 hPa 21.3 mm 16.6°
3
3%
11:00
28°
1015.8 hPa 21.3 mm 17.6°
3
2%
14:00
33°
1015.6 hPa 21.4 mm 17.7°
3
0%
17:00
32°
1015.1 hPa 22.0 mm 19.2°
3
0%
20:00
32°
1014.5 hPa 22.7 mm 20.5°
2
0%
23:00
28°
1014.8 hPa 25.1 mm 17.7°
2
0%
 06:05     21:41    Daglengte: 15:36 Vrijdag 26 Jul
02:00
24°
1015.0 hPa 25.1 mm 14.7°
3
0%
05:00
24°
1014.9 hPa   15.9°
2
0%
08:00
24°
1014.9 hPa 50.7 mm 17.2°
2
0%
14:00
34°
1014.1 hPa 52.3 mm 17.9°
3
0%
20:00
34°
1012.6 hPa 53.3 mm 18.3°
2
0%
 06:07     21:39    Daglengte: 15:32 Zaterdag 27 Jul
02:00
24°
1012.8 hPa 53.3 mm 16.2°
2
0%
08:00
24°
1012.6 hPa 53.3 mm 15.5°
2
0%
14:00
34°
1012.2 hPa 53.3 mm 17.1°
1
0%
20:00
32°
1011.5 hPa 53.4 mm 17.5°
3
14%
 06:08     21:38    Daglengte: 15:30 Zondag 28 Jul
02:00
22°
1013.2 hPa 53.5 mm 16.6°
3
6%
08:00
21°
1014.1 hPa 53.5 mm 17.9°
4
6%
14:00
26°
1015.1 hPa 53.8 mm 17.1°
6
37%
20:00
21°
1020.6 hPa 54.2 mm 11.2°
4
0%
 06:10     21:36    Daglengte: 15:26 Maandag 29 Jul
02:00
18°
1017.8 hPa 0.7 mm 13.7°
0
28%
08:00
18°
1018.0 hPa 0.2 mm 14.4°
0
28%
14:00
27°
1017.8 hPa 0.3 mm 13.8°
1
26%
20:00
25°
1017.0 hPa 0.8 mm 14.3°
2
27%
 06:11     21:35    Daglengte: 15:24 Dinsdag 30 Jul
02:00
18°
1017.5 hPa 0.5 mm 13.6°
0
21%
08:00
18°
1017.5 hPa 0.1 mm 14.2°
1
25%
14:00
26°
1017.8 hPa   12.6°
2
31%
20:00
25°
1017.1 hPa   12.9°
3
25%
 06:12     21:33    Daglengte: 15:21 Woensdag 31 Jul
02:00
17°
1017.5 hPa   12.5°
1
23%
08:00
18°
1017.0 hPa   13.1°
1
22%
14:00
24°
1016.9 hPa 0.4 mm 12.3°
3
35%
20:00
23°
1016.2 hPa 0.4 mm 12.0°
3
37%
 06:14     21:32    Daglengte: 15:18 Donderdag 01 Aug
02:00
15°
1017.0 hPa 0.3 mm 12.0°
2
19%
08:00
16°
1016.4 hPa   12.6°
2
13%
14:00
23°
1015.9 hPa 0.4 mm 11.7°
4
23%
20:00
21°
1014.9 hPa 0.4 mm 11.7°
4
39%
 06:15     21:30    Daglengte: 15:15 Vrijdag 02 Aug
02:00
15°
1015.6 hPa 0.2 mm 11.7°
2
25%
08:00
15°
1015.0 hPa 0.2 mm 12.2°
2
24%
14:00
22°
1014.6 hPa 0.4 mm 11.5°
3
39%
20:00
21°
1013.6 hPa 0.5 mm 11.3°
3
43%
 06:17     21:28    Daglengte: 15:11 Zaterdag 03 Aug
02:00
14°
1014.2 hPa 0.3 mm 11.4°
1
30%
  CAPE Lifted Index Hail Supercell Tornado SRH 3km CL BTM PRES CL TOP PRES Swiss DWD icon SMHI TS
 05:56     21:49    Daglengte: 15:53 Vandaag
06:00 0 J/kg 4.4 K 0 % 0 % 0 % 0 m²/s² 0 0 6.77 2
07:00 1 J/kg 4.8 K 0 % 0 % 0 % 0 m²/s² 0 0 7.11 1
08:00 1 J/kg 4.9 K 0 % 0 % 0 % 0 m²/s² 0 0 7.12 3
09:00 0 J/kg 5.0 K 0 % 0 % 0 % 0 m²/s² 0 0 7.22 1
10:00 19 J/kg 4.0 K 0 % 0 % 0 % 0 m²/s² 0 0 6.16 1
11:00 12 J/kg 4.5 K 0 % 0 % 0 % 0 m²/s² 0 0 6.39 3
12:00 4 J/kg 5.0 K 0 % 0 % 0 % 0 m²/s² 0 0 6.89 3
13:00 0 J/kg 5.3 K 0 % 0 % 0 % 0 m²/s² 0 0 6.56 3
14:00 0 J/kg 4.9 K 0 % 0 % 0 % 0 m²/s² 0 0 5.95 3
15:00 8 J/kg 4.0 K 0 % 0 % 0 % 0 m²/s² 0 0 4.9 3
16:00 1 J/kg 3.6 K 0 % 0 % 0 % 0 m²/s² 0 0 4.47 3
17:00 1 J/kg 3.2 K 0 % 0 % 0 % 0 m²/s² 0 0 3.95 3
18:00 0 J/kg 2.5 K 0 % 0 % 0 % 0 m²/s² 0 0 3.4 3
19:00 0 J/kg 1.8 K 0 % 0 % 0 % 0 m²/s² 0 0 3.03 3
20:00 0 J/kg 1.4 K 0 % 0 % 0 % 0 m²/s² 0 0 3.8 3
21:00 9 J/kg 0.9 K 0 % 0 % 0 % 0 m²/s² 0 0 2.64 3
22:00 0 J/kg 0.5 K 0 % 0 % 0 % 0 m²/s² 0 0 2.12 3
23:00 0 J/kg 0.2 K 0 % 0 % 0 % 0 m²/s² 0 0 1.58 3
 05:57     21:48    Daglengte: 15:51 Morgen
00:00 0 J/kg -0.2 K 0 % 0 % 0 % 0 m²/s² 0 0 1.48 3
01:00 0 J/kg -0.4 K 0 % 0 % 0 % 0 m²/s² 0 0 1.79 3
02:00 0 J/kg -1.2 K 0 % 0 % 0 % 0 m²/s² 0 0 0.84 61
03:00 0 J/kg -2.0 K 0 % 0 % 0 % 0 m²/s² 0 0 -0.32 3
04:00 0 J/kg -2.6 K 0 % 0 % 0 % 0 m²/s² 0 0 -1.58 80
05:00 0 J/kg -2.5 K 0 % 0 % 0 % 0 m²/s² 0 0 -1.69 2
06:00 0 J/kg -2.8 K 0 % 0 % 0 % 0 m²/s² 0 0 -2.05 3
07:00 0 J/kg -3.1 K 0 % 0 % 0 % 0 m²/s² 0 0 -2.62 3
08:00 0 J/kg -3.0 K 0 % 0 % 0 % 0 m²/s² 0 0 -2.25 80
09:00 32 J/kg 0.2 K 0 % 0 % 0 % 0 m²/s² 0 0 0.2 80
10:00 11 J/kg 0.3 K 0 % 0 % 0 % 0 m²/s² 0 0 1.29 80
11:00 167 J/kg -0.4 K 0 % 0 % 0 % 0 m²/s² 0 0 1.31 61
12:00 640 J/kg -2.1 K 0 % 0 % 0 % 0 m²/s² 0 0 -0.21 80
13:00 721 J/kg -3.1 K 0 % 0 % 0 % 0 m²/s² 0 0 -2.77 80
14:00 586 J/kg -2.5 K 0 % 0 % 0 % 0 m²/s² 0 0 -2.14 80
15:00 474 J/kg -2.3 K 0 % 0 % 0 % 0 m²/s² 0 0 -1.22 2
16:00 456 J/kg -2.6 K 0 % 0 % 0 % 0 m²/s² 0 0 0.55 1
17:00 610 J/kg -3.2 K 0 % 0 % 0 % 0 m²/s² 0 0 -0.47 2
18:00 757 J/kg -3.7 K 0 % 0 % 0 % 0 m²/s² 0 0 -0.82 2
19:00 778 J/kg -2.7 K 0 % 0 % 0 % 0 m²/s² 0 0 -2.67 3
20:00 629 J/kg -2.9 K 0 % 0 % 0 % 0 m²/s² 0 0 -1.43 3
21:00 761 J/kg -3.0 K 0 % 0 % 0 % 0 m²/s² 0 0 0.42 3
22:00 422 J/kg -1.6 K 0 % 0 % 0 % 0 m²/s² 0 0 2.39 0
23:00 0 J/kg 2.7 K 0 % 0 % 0 % 0 m²/s² 0 0 6.81 0
 05:59     21:47    Daglengte: 15:48 Zondag 21 Jul
00:00 0 J/kg 3.7 K 0 % 0 % 0 % 0 m²/s² 0 0 7.81 0
01:00 0 J/kg 4.6 K 0 % 0 % 0 % 0 m²/s² 0 0 8.59 0
02:00 0 J/kg 4.9 K 0 % 0 % 0 % 0 m²/s² 0 0 9.22 1
03:00 0 J/kg 3.0 K 0 % 0 % 0 % 0 m²/s² 0 0 7.11 1
04:00 0 J/kg 3.1 K 0 % 0 % 0 % 0 m²/s² 0 0 7.63 1
05:00 3 J/kg 3.4 K 0 % 0 % 0 % 0 m²/s² 0 0 8.56 2
06:00 4 J/kg 3.5 K 0 % 0 % 0 % 0 m²/s² 0 0 8.66 0
07:00 4 J/kg 3.9 K 0 % 0 % 0 % 0 m²/s² 0 0 8.91 0
08:00 4 J/kg 4.3 K 0 % 0 % 0 % 0 m²/s² 0 0 9.07 0
09:00 5 J/kg 4.4 K 0 % 0 % 0 % 0 m²/s² 0 0 9.29 0
10:00 5 J/kg 4.7 K 0 % 0 % 0 % 0 m²/s² 0 0 9.89 0
11:00 27 J/kg 4.1 K 0 % 0 % 0 % 0 m²/s² 0 0 9.14 1
12:00 48 J/kg 3.1 K 0 % 0 % 0 % 0 m²/s² 0 0 8.44 2
13:00 59 J/kg 2.8 K 0 % 0 % 0 % 0 m²/s² 0 0 8.44 2
14:00 80 J/kg 2.8 K 0 % 0 % 0 % 0 m²/s² 0 0 8.44 1
15:00 60 J/kg 2.5 K 0 % 0 % 0 % 0 m²/s² 0 0 8.83 1
16:00 49 J/kg 2.1 K 0 % 0 % 0 % 0 m²/s² 0 0 8.43 2
17:00 51 J/kg 1.8 K 0 % 0 % 0 % 0 m²/s² 0 0 7.62 3
18:00 41 J/kg 1.7 K 0 % 0 % 0 % 0 m²/s² 0 0 7.37 3
19:00 31 J/kg 1.9 K 0 % 0 % 0 % 0 m²/s² 0 0 7.42 3
20:00 8 J/kg 2.1 K 0 % 0 % 0 % 0 m²/s² 0 0 7.38 2
21:00 3 J/kg 2.1 K 0 % 0 % 0 % 0 m²/s² 0 0 7.11 1
22:00 0 J/kg 2.3 K 0 % 0 % 0 % 0 m²/s² 0 0 7.31 3
23:00 0 J/kg 2.4 K 0 % 0 % 0 % 0 m²/s² 0 0 7.29 3
 06:00     21:46    Daglengte: 15:46 Maandag 22 Jul
00:00 0 J/kg 2.8 K 0 % 0 % 0 % 0 m²/s² 0 0 7.45 3
01:00 0 J/kg 3.7 K 0 % 0 % 0 % 0 m²/s² 0 0 8.47 2
02:00 0 J/kg 4.4 K 0 % 0 % 0 % 0 m²/s² 0 0 9.32 3
03:00 0 J/kg 5.3 K 0 % 0 % 0 % 0 m²/s² 0 0 10.34
04:00 0 J/kg 6.0 K 0 % 0 % 0 % 0 m²/s² 0 0 10.92
05:00 0 J/kg 7.0 K 0 % 0 % 0 % 0 m²/s² 0 0 12.04
Temp Baro Wind Neerslag
  EWN Forecast EWN WRFDA DWD ICON FMI HIRLAM MET Norway GFS
 05:56     21:49    Daglengte: 15:53 Vandaag
08:00 16.0° 1013.5 hPa 3.4 m/s 0.0 mm 14.5° 1013.2 hPa 2.9 m/s 0.0 mm 15.8° 1013.7 hPa 3.4 m/s -2.0 mm 16.4° 1013.5 hPa 3.7 m/s 0.0 mm 16.1° 1013.4 hPa 2.8 m/s 0.0 mm 15.7° 1013.8 hPa 3.7 m/s
11:00 20.8° 1013.9 hPa 3.0 m/s 0.0 mm 20.9° 1013.9 hPa 3.4 m/s 0.0 mm 20.5° 1013.9 hPa 4.5 m/s 0.0 mm 21.8° 1013.7 hPa 2.8 m/s 0.0 mm 20.8° 1013.9 hPa 2.6 m/s 0.0 mm 21.1° 1014.5 hPa 3.5 m/s
14:00 23.2° 1013.5 hPa 4.1 m/s 0.0 mm 23.4° 1013.5 hPa 4.3 m/s 0.0 mm 22.0° 1013.8 hPa 5.9 m/s 0.0 mm 24.0° 1013.3 hPa 4.1 m/s 0.0 mm 23.3° 1013.5 hPa 3.8 m/s 0.0 mm 23.2° 1014.1 hPa 4.7 m/s
17:00 23.8° 1012.7 hPa 3.4 m/s 0.0 mm 25.2° 1013.0 hPa 4.8 m/s 0.0 mm 23.2° 1012.5 hPa 3.8 m/s 0.0 mm 24.3° 1012.6 hPa 3.8 m/s 0.0 mm 23.7° 1012.7 hPa 2.1 m/s 0.0 mm 24.3° 1013.8 hPa 4.9 m/s
20:00 22.0° 1012.4 hPa 2.3 m/s 0.0 mm 24.0° 1012.5 hPa 3.0 m/s 0.0 mm 20.5° 1012.3 hPa 1.8 m/s 0.0 mm 23.2° 1012.5 hPa 1.7 m/s 0.0 mm 20.7° 1012.4 hPa 2.3 m/s 0.0 mm 23.0° 1013.3 hPa 2.8 m/s
23:00 19.5° 1012.1 hPa 1.5 m/s 0.0 mm 19.4° 1012.9 hPa 1.6 m/s 0.0 mm 19.3° 1012.0 hPa 1.5 m/s 0.0 mm 20.7° 1012.9 hPa 0.9 m/s 0.0 mm 18.8° 1011.6 hPa 1.8 m/s 0.0 mm 18.4° 1013.2 hPa 1.4 m/s
 05:57     21:48    Daglengte: 15:51 Morgen
02:00 18.3° 1011.0 hPa 2.0 m/s 0.0 mm 18.2° 1011.4 hPa 3.7 m/s 0.0 mm 18.3° 1011.1 hPa 1.7 m/s 0.4 mm 19.3° 1011.9 hPa 1.9 m/s 0.0 mm 16.7° 1010.7 hPa 2.1 m/s 0.0 mm 18.3° 1012.4 hPa 2.9 m/s
05:00 18.7° 1009.4 hPa 3.4 m/s 0.0 mm 17.7° 1010.2 hPa 3.7 m/s 0.0 mm 16.8° 1009.2 hPa 1.1 m/s 0.9 mm 18.8° 1010.5 hPa 2.2 m/s 0.0 mm 19.4° 1009.1 hPa 4.5 m/s 0.0 mm 16.8° 1011.2 hPa 3.9 m/s
08:00 19.4° 1009.2 hPa 3.7 m/s 0.5 mm 19.6° 1009.6 hPa 6.0 m/s 0.6 mm 17.5° 1009.3 hPa 3.4 m/s 0.7 mm 20.6° 1009.7 hPa 3.3 m/s 0.0 mm 19.3° 1009.0 hPa 3.4 m/s 0.3 mm 17.6° 1010.4 hPa 5.0 m/s
11:00 20.0° 1009.6 hPa 3.7 m/s 4.2 mm 21.0° 1011.1 hPa 3.5 m/s 9.4 mm 18.5° 1010.0 hPa 4.8 m/s 4.3 mm 25.5° 1009.3 hPa 3.6 m/s 0.0 mm 18.8° 1009.5 hPa 3.5 m/s 3.4 mm 18.6° 1011.1 hPa 3.9 m/s
14:00 23.0° 1010.1 hPa 5.6 m/s 2.9 mm 24.5° 1011.2 hPa 5.2 m/s 10.5 mm 22.1° 1010.1 hPa 6.9 m/s 1.4 mm 27.2° 1008.7 hPa 3.9 m/s 0.0 mm 20.6° 1010.4 hPa 6.1 m/s 1.3 mm 24.1° 1011.5 hPa 6.0 m/s
17:00 23.4° 1010.4 hPa 6.4 m/s 2.4 mm 24.8° 1011.0 hPa 4.7 m/s 11.5 mm 23.9° 1010.5 hPa 7.5 m/s 0.1 mm 24.7° 1007.9 hPa 3.5 m/s 0.0 mm 23.0° 1010.6 hPa 6.8 m/s 1.3 mm 24.6° 1011.2 hPa 5.7 m/s
20:00 21.6° 1011.6 hPa 5.3 m/s 0.0 mm 21.8° 1011.4 hPa 2.4 m/s 17.6 mm 22.2° 1011.4 hPa 5.5 m/s 0.0 mm 21.2° 1009.6 hPa 4.3 m/s 0.0 mm 21.7° 1012.1 hPa 5.6 m/s 0.0 mm 21.5° 1012.1 hPa 4.0 m/s
23:00 18.1° 1013.8 hPa 4.6 m/s 0.0 mm 18.1° 1013.5 hPa 4.1 m/s 22.6 mm 18.3° 1012.9 hPa 4.5 m/s 0.0 mm 17.9° 1014.5 hPa 4.5 m/s 0.0 mm 17.7° 1014.0 hPa 3.7 m/s
 05:59     21:47    Daglengte: 15:48 Zondag 21 Jul
02:00 16.0° 1015.1 hPa 4.6 m/s 0.0 mm 15.8° 1014.2 hPa 4.7 m/s 22.6 mm 16.5° 1014.1 hPa 5.0 m/s 0.0 mm 15.4° 1016.1 hPa 3.7 m/s 0.0 mm 15.4° 1015.0 hPa 3.9 m/s
05:00 15.3° 1016.4 hPa 4.1 m/s 0.0 mm 16.3° 1014.9 hPa 4.8 m/s 22.6 mm 15.3° 1015.9 hPa 4.1 m/s 0.0 mm 14.4° 1017.1 hPa 3.4 m/s 0.0 mm 14.5° 1016.3 hPa 3.8 m/s
08:00 16.4° 1018.7 hPa 4.0 m/s 0.0 mm 16.9° 1017.1 hPa 4.9 m/s 22.9 mm 16.5° 1018.2 hPa 4.1 m/s 0.0 mm 16.3° 1018.9 hPa 3.1 m/s 0.0 mm 16.7° 1017.9 hPa 4.6 m/s
11:00 20.3° 1020.3 hPa 4.0 m/s 0.0 mm 19.9° 1019.4 hPa 4.2 m/s 22.9 mm 20.6° 1020.3 hPa 4.7 m/s 0.0 mm 20.3° 1020.4 hPa 3.6 m/s 0.0 mm 19.1° 1020.1 hPa 4.1 m/s
14:00 23.5° 1021.2 hPa 3.4 m/s 0.0 mm 24.1° 1019.9 hPa 3.8 m/s 22.9 mm 24.2° 1021.4 hPa 3.9 m/s 0.0 mm 22.8° 1021.3 hPa 3.0 m/s 0.0 mm 22.1° 1021.2 hPa 3.6 m/s
17:00 24.5° 1021.3 hPa 4.1 m/s 0.0 mm 24.4° 1020.4 hPa 2.9 m/s 23.0 mm 24.9° 1021.6 hPa 3.7 m/s 0.0 mm 24.4° 1021.3 hPa 4.7 m/s 0.0 mm 22.9° 1021.9 hPa 2.6 m/s
20:00 22.7° 1021.9 hPa 2.6 m/s 0.0 mm 23.8° 1021.0 hPa 2.4 m/s 23.0 mm 22.8° 1022.2 hPa 2.3 m/s 0.0 mm 22.4° 1022.0 hPa 2.9 m/s 0.0 mm 22.0° 1022.5 hPa 1.8 m/s
23:00 18.7° 1023.0 hPa 2.1 m/s 0.0 mm 17.6° 1023.1 hPa 2.4 m/s 23.0 mm 18.8° 1023.3 hPa 0.8 m/s 0.0 mm 18.9° 1022.9 hPa 2.4 m/s 16.3° 1024.3 hPa 1.2 m/s
 06:00     21:46    Daglengte: 15:46 Maandag 22 Jul
02:00 15.4° 1023.6 hPa 1.7 m/s 0.0 mm 15.0° 1022.9 hPa 2.4 m/s 23.0 mm 15.5° 1023.8 hPa 1.0 m/s 0.0 mm 15.4° 1023.7 hPa 1.8 m/s 15.1° 1024.1 hPa 0.2 m/s
05:00 15.6° 1023.8 hPa 2.3 m/s 23.0 mm 12.9° 1022.9 hPa 2.1 m/s 23.0 mm 16.1° 1024.0 hPa 2.4 m/s 14.4° 1024.0 hPa 0.6 m/s
08:00 16.8° 1024.2 hPa 2.7 m/s 23.0 mm 17.1° 1023.6 hPa 1.3 m/s 23.0 mm 16.8° 1024.3 hPa 2.9 m/s 16.9° 1024.7 hPa 1.4 m/s
11:00 23.1° 1024.5 hPa 3.2 m/s 21.3 mm 23.2° 1024.5 hPa 3.2 m/s 22.1° 1025.1 hPa 2.4 m/s 21.3 mm
14:00 26.4° 1024.6 hPa 3.3 m/s 21.3 mm 26.4° 1024.6 hPa 3.4 m/s 26.2° 1024.4 hPa 1.9 m/s 21.3 mm
17:00 26.7° 1024.0 hPa 2.2 m/s 21.3 mm 26.6° 1024.0 hPa 2.2 m/s 27.5° 1023.5 hPa 1.8 m/s 21.3 mm
20:00 26.8° 1023.4 hPa 1.0 m/s 21.3 mm 26.9° 1023.4 hPa 1.0 m/s 26.0° 1022.9 hPa 0.6 m/s 21.3 mm
23:00 22.2° 1023.8 hPa 1.5 m/s 21.3 mm 22.4° 1023.9 hPa 1.4 m/s 19.7° 1023.2 hPa 2.6 m/s 21.3 mm
 06:01     21:45    Daglengte: 15:44 Dinsdag 23 Jul
02:00 17.9° 1024.2 hPa 1.8 m/s 21.3 mm 17.9° 1024.4 hPa 1.8 m/s 18.3° 1022.5 hPa 2.2 m/s 21.3 mm
05:00 18.9° 1023.7 hPa 1.9 m/s 21.3 mm 19.0° 1024.0 hPa 1.9 m/s 17.3° 1021.0 hPa 2.6 m/s 21.3 mm
08:00 20.2° 1023.2 hPa 2.0 m/s 21.3 mm 20.2° 1023.5 hPa 1.9 m/s 19.9° 1020.4 hPa 2.7 m/s 21.3 mm
11:00 25.2° 1022.8 hPa 2.2 m/s 21.3 mm 25.1° 1023.0 hPa 2.1 m/s 26.5° 1019.9 hPa 2.8 m/s 21.3 mm
14:00 30.1° 1022.2 hPa 2.4 m/s 21.3 mm 30.0° 1022.6 hPa 2.3 m/s 30.9° 1018.4 hPa 3.3 m/s 21.3 mm
17:00 29.9° 1021.2 hPa 2.0 m/s 21.3 mm 29.7° 1021.5 hPa 1.9 m/s 32.6° 1016.8 hPa 2.9 m/s 21.3 mm
20:00 29.5° 1020.1 hPa 1.6 m/s 21.3 mm 29.4° 1020.5 hPa 1.5 m/s 30.3° 1015.3 hPa 2.1 m/s 21.3 mm
23:00 25.2° 1020.2 hPa 1.9 m/s 21.3 mm 25.3° 1020.6 hPa 1.9 m/s 24.3° 1015.4 hPa 2.5 m/s 21.3 mm
 06:03     21:43    Daglengte: 15:40 Woensdag 24 Jul
02:00 21.3° 1020.3 hPa 2.4 m/s 21.3 mm 21.2° 1020.8 hPa 2.3 m/s 22.1° 1014.9 hPa 3.4 m/s 21.3 mm
05:00 21.6° 1019.9 hPa 2.5 m/s 21.3 mm 21.6° 1020.5 hPa 2.4 m/s 20.7° 1013.6 hPa 3.6 m/s 21.3 mm
08:00 22.2° 1019.5 hPa 2.6 m/s 21.3 mm 22.1° 1020.1 hPa 2.5 m/s 23.0° 1013.4 hPa 3.9 m/s 21.3 mm
11:00 27.4° 1018.9 hPa 3.0 m/s 21.3 mm 27.2° 1019.5 hPa 3.0 m/s 30.2° 1012.4 hPa 3.8 m/s 21.3 mm
14:00 32.5° 1018.3 hPa 3.5 m/s 21.3 mm 32.3° 1018.9 hPa 3.4 m/s 34.7° 1011.2 hPa 4.2 m/s 21.3 mm
17:00 32.3° 1017.1 hPa 2.8 m/s 21.3 mm 31.9° 1017.8 hPa 2.6 m/s 36.2° 1009.0 hPa 4.5 m/s 21.3 mm
20:00 31.6° 1015.9 hPa 2.0 m/s 21.3 mm 31.5° 1016.7 hPa 1.8 m/s 32.8° 1007.7 hPa 3.9 m/s 21.3 mm
23:00 28.0° 1016.1 hPa 2.6 m/s 21.3 mm 28.1° 1016.9 hPa 2.4 m/s 27.2° 1007.5 hPa 4.9 m/s 21.3 mm
 06:04     21:42    Daglengte: 15:38 Donderdag 25 Jul
02:00 24.6° 1016.2 hPa 2.9 m/s 21.3 mm 24.7° 1017.1 hPa 3.0 m/s 23.3° 1006.3 hPa 2.2 m/s 21.3 mm
05:00 24.0° 1016.0 hPa 2.9 m/s 21.3 mm 24.1° 1017.0 hPa 2.8 m/s 22.5° 1005.2 hPa 3.8 m/s 21.3 mm
08:00 23.5° 1016.0 hPa 2.9 m/s 21.3 mm 23.5° 1016.8 hPa 2.6 m/s 23.7° 1006.9 hPa 5.8 m/s 21.3 mm
11:00 28.5° 1015.8 hPa 2.9 m/s 21.3 mm 28.7° 1016.5 hPa 2.9 m/s 26.2° 1008.7 hPa 3.5 m/s 21.3 mm
14:00 33.0° 1015.6 hPa 3.3 m/s 21.4 mm 33.9° 1016.1 hPa 3.1 m/s 22.9° 1010.4 hPa 5.6 m/s 21.4 mm
17:00 32.4° 1015.1 hPa 2.5 m/s 22.0 mm 33.3° 1015.4 hPa 2.4 m/s 22.1° 1011.7 hPa 4.4 m/s 22.0 mm
20:00 31.7° 1014.5 hPa 1.7 m/s 22.7 mm 32.8° 1014.7 hPa 1.6 m/s 20.2° 1012.1 hPa 2.4 m/s 22.7 mm
23:00 27.9° 1014.8 hPa 2.2 m/s 25.1 mm 28.8° 1015.0 hPa 2.1 m/s 17.9° 1013.0 hPa 3.4 m/s 25.1 mm
 06:05     21:41    Daglengte: 15:36 Vrijdag 26 Jul
02:00 24.1° 1015.0 hPa 2.6 m/s 25.1 mm 24.8° 1015.2 hPa 2.6 m/s 16.5° 1013.1 hPa 3.0 m/s 25.1 mm
05:00 23.7° 1014.9 hPa 2.4 m/s 25.1 mm 24.5° 1015.1 hPa 2.2 m/s 15.8° 1012.8 hPa 3.5 m/s 25.1 mm
08:00 23.5° 1014.9 hPa 2.1 m/s 25.6 mm 24.1° 1015.0 hPa 1.9 m/s 16.9° 1014.0 hPa 4.3 m/s 25.6 mm
14:00 34.3° 1014.1 hPa 3.2 m/s 26.4 mm 35.2° 1013.9 hPa 3.0 m/s 24.1° 1016.8 hPa 5.8 m/s 26.4 mm
20:00 33.6° 1012.6 hPa 1.8 m/s 26.7 mm 34.7° 1012.1 hPa 1.6 m/s 22.0° 1018.1 hPa 4.4 m/s 26.7 mm
 06:07     21:39    Daglengte: 15:32 Zaterdag 27 Jul
02:00 24.4° 1012.8 hPa 2.3 m/s 26.7 mm 25.4° 1012.1 hPa 2.4 m/s 13.9° 1020.8 hPa 1.2 m/s 26.7 mm
08:00 24.4° 1012.6 hPa 2.1 m/s 26.7 mm 25.1° 1011.7 hPa 2.1 m/s 16.3° 1022.3 hPa 1.6 m/s 26.7 mm
14:00 34.4° 1012.2 hPa 0.6 m/s 26.7 mm 35.3° 1011.3 hPa 0.5 m/s 24.7° 1022.1 hPa 1.9 m/s 26.7 mm
20:00 31.8° 1011.5 hPa 2.9 m/s 26.7 mm 32.7° 1010.7 hPa 2.9 m/s 21.7° 1020.7 hPa 2.4 m/s 26.7 mm
 06:08     21:38    Daglengte: 15:30 Zondag 28 Jul
02:00 22.1° 1013.2 hPa 3.4 m/s 26.7 mm 22.6° 1012.5 hPa 3.4 m/s 16.1° 1020.3 hPa 2.9 m/s 26.7 mm
08:00 21.1° 1014.1 hPa 4.3 m/s 26.7 mm 21.5° 1013.6 hPa 4.5 m/s 16.8° 1019.3 hPa 1.9 m/s 26.7 mm
14:00 25.6° 1015.1 hPa 6.4 m/s 27.0 mm 25.8° 1014.7 hPa 6.6 m/s 23.8° 1019.7 hPa 4.0 m/s 27.0 mm
20:00 20.8° 1020.6 hPa 4.3 m/s 27.1 mm 20.8° 1020.6 hPa 4.4 m/s 27.1 mm
 06:10     21:36    Daglengte: 15:26 Maandag 29 Jul
02:00 17.7° 1017.8 hPa 0.4 m/s 0.7 mm
08:00 18.0° 1018.0 hPa 0.1 m/s 0.2 mm
14:00 26.7° 1017.8 hPa 0.7 m/s 0.3 mm
20:00 25.4° 1017.0 hPa 1.9 m/s 0.8 mm
 06:11     21:35    Daglengte: 15:24 Dinsdag 30 Jul
02:00 17.8° 1017.5 hPa 0.4 m/s 0.5 mm
08:00 18.4° 1017.5 hPa 1.2 m/s 0.1 mm
14:00 26.2° 1017.8 hPa 2.1 m/s 0.0 mm
20:00 24.6° 1017.1 hPa 2.9 m/s 0.0 mm
 06:12     21:33    Daglengte: 15:21 Woensdag 31 Jul
02:00 16.9° 1017.5 hPa 0.7 m/s 0.0 mm
08:00 17.7° 1017.0 hPa 1.1 m/s 0.0 mm
14:00 24.3° 1016.9 hPa 2.9 m/s 0.4 mm
20:00 22.6° 1016.2 hPa 3.2 m/s 0.4 mm
 06:14     21:32    Daglengte: 15:18 Donderdag 01 Aug
02:00 15.2° 1017.0 hPa 1.5 m/s 0.3 mm
08:00 16.1° 1016.4 hPa 2.3 m/s 0.0 mm
14:00 23.0° 1015.9 hPa 3.9 m/s 0.4 mm
20:00 21.3° 1014.9 hPa 3.9 m/s 0.4 mm
 06:15     21:30    Daglengte: 15:15 Vrijdag 02 Aug
02:00 14.7° 1015.6 hPa 2.1 m/s 0.2 mm
08:00 15.4° 1015.0 hPa 2.5 m/s 0.2 mm
14:00 22.4° 1014.6 hPa 3.3 m/s 0.4 mm
20:00 21.5° 1013.6 hPa 2.8 m/s 0.5 mm
 06:17     21:28    Daglengte: 15:11 Zaterdag 03 Aug
02:00 14.4° 1014.2 hPa 1.5 m/s 0.3 mm
FMI Hirlam - 7.5 km EWN WRFDA - 12 km DWD ICON - 7 km GFS - 25 km Basiskaart






























































Updatetijd (Europe/Brussels) Resolutie Lengte Stap
FMI Hirlam 01:00, 07:00, 13:00, 19:00 7.5 km 49h 1h
EWN WRFDA 03:45, 09:45, 15:45, 21:45 12 km 73h 1h
DWD ICON 23:45, 05:45, 11:45, 17:45 7 km 75h 1h
GFS 02:30, 08:30, 14:30, 20:30 25 km 237h 3h
30+ mm
25-30 mm
20-25 mm
15-20 mm
10-15 mm
6-10 mm
4-6 mm
2-4 mm
1-2 mm
0.5-1 mm
0.2-0.5 mm
0.1-0.2 mm
30+ mm
25-30 mm
20-25 mm
15-20 mm
10-15 mm
6-10 mm
4-6 mm
2-4 mm
1-2 mm
0.5-1 mm
0.2-0.5 mm
0.1-0.2 mm
Sneeuwval
Natte sneeuw
Hagel
Vorst
30+ mm
25-30 mm
20-25 mm
15-20 mm
10-15 mm
6-10 mm
4-6 mm
2-4 mm
1-2 mm
0.5-1 mm
0.2-0.5 mm
0.1-0.2 mm
Sneeuwval
Natte sneeuw
Hagel
Vorst
Onweer
50 mm
40 mm
30 mm
26 mm
22 mm
18 mm
14 mm
10 mm
9 mm
8 mm
7 mm
6 mm
5 mm
4.5 mm
4 mm
3.5 mm
3 mm
2.5 mm
2 mm
1.5 mm
1 mm
0.8 mm
0.6 mm
0.4 mm
0.2 mm
0.05 mm
35°
30°
25°
20°
15°
10°
-5°
-10°
-15°
-20°
-25°
-30°
-35°
33> m/s
29 m/s
25 m/s
21 m/s
17 m/s
14 m/s
11 m/s
8 m/s
5 m/s
3 m/s
0 m/s
2600 J/kg
2400 J/kg
2200 J/kg
2000 J/kg
1800 J/kg
1600 J/kg
1400 J/kg
1200 J/kg
1000 J/kg
800 J/kg
600 J/kg
400 J/kg
200 J/kg
70 dBZ
65 dBZ
60 dBZ
55 dBZ
50 dBZ
45 dBZ
40 dBZ
35 dBZ
30 dBZ
25 dBZ
20 dBZ
15 dBZ
10 dBZ
5 dBZ
-1 K
-2 K
-3 K
-4 K
-5 K
-6 K
-7 K
-8 K
-9 K
950 m²/s²
900 m²/s²
850 m²/s²
800 m²/s²
750 m²/s²
700 m²/s²
650 m²/s²
600 m²/s²
550 m²/s²
500 m²/s²
450 m²/s²
400 m²/s²
350 m²/s²
300 m²/s²
250 m²/s²
200 m²/s²
150 m²/s²
100 m²/s²
46 m/s
44 m/s
42 m/s
40 m/s
38 m/s
36 m/s
34 m/s
32 m/s
30 m/s
28 m/s
26 m/s
24 m/s
22 m/s
20 m/s
16 m/s
12 m/s
8 m/s
4 m/s
30 m/s
28 m/s
26 m/s
24 m/s
22 m/s
20 m/s
18 m/s
16 m/s
14 m/s
12 m/s
10 m/s
8 m/s
6 m/s
4 m/s
2 m/s
3.0
2.8
2.6
2.4
2.2
2.0
1.8
1.6
1.4
1.2
1.0
0.8
0.6
0.4
0.2
15
14
13
12
11
10
9
8
7
6
5
4
3
2
1
90%
80%
70%
60%
50%
40%
30%
20%
10%
42
40
38
36
34
32
30
28
26
24
22
20
18
16
14
12
90+ cm
80-90 cm
70-80 cm
60-70 cm
50-60 cm
40-50 cm
30-40 cm
20-30 cm
10-20 cm
1-10 cm
Sneeuwval
Natte sneeuw
Regen
>120 mm
115 mm
110 mm
105 mm
100 mm
95 mm
90 mm
85 mm
80 mm
75 mm
70 mm
65 mm
60 mm
55 mm
50 mm
45 mm
45 mm
40 mm
35 mm
30 mm
25 mm
20 mm
15 mm
10 mm
5 mm
0.1 mm
960 hPa
880 hPa
800 hPa
720 hPa
640 hPa
560 hPa
584 gpdm
568 gpdm
552 gpdm
536 gpdm
520 gpdm
504 gpdm
488 gpdm